Weather observations for the past three days for
Cape Girardeau, Cape Girardeau Regional Airport
Imperial (Metric)
Date Time (cdt) Wind (mph) Vis. (mi.) Weather Sky Cond. Temperature (ºF) Relative Humidity Wind Chill (°F) Heat Index (°F) Pressure Precipitation (in)
Air Dwpt 6 hour altimeter (in) sea level (mb) 1 hr 3 hr 6 hr
Max. Min.
24 01:53 Calm 10.00 Fair CLR 69.1 68 96% 29.91 1012.4
24 00:53 Calm 10.00 Fair CLR 71.1 69.1 91.9 70 94% 29.91 1012.5
23 23:53 Calm 10.00 Fair CLR 73.9 70 88% 29.91 1012.3
23 22:53 Calm 10.00 Fair CLR 73 70 90% 29.89 1011.8
23 21:53 SW 3 10.00 Fair CLR 77 70 79% 79 29.87 1011.1
23 20:53 N 3 10.00 Fair CLR 82.9 71.1 67% 88 29.85 1010.5
23 19:53 N 6 10.00 Fair CLR 88 70 55% 93 29.85 1010.3
23 18:53 N 9 10.00 Fair CLR 91.9 69.1 95 90 47% 97 29.85 1010.2
23 17:53 NW 9 10.00 A Few Clouds FEW060 93 69.1 46% 98 29.84 1009.9
23 16:53 N 7 10.00 A Few Clouds FEW060 91 71.1 52% 98 29.84 1010.1
23 15:53 NW 14 G 18 10.00 A Few Clouds FEW055 93.9 71.1 48% 101 29.84 1010.0
23 14:53 W 10 10.00 Fair CLR 91.9 72 52% 100 29.85 1010.3
23 13:53 NW 13 G 17 10.00 Mostly Cloudy SCT047 BKN060 91.9 73.9 56% 102 29.85 1010.4
23 12:53 N 12 G 18 10.00 Fair CLR 91.9 72 93 79 52% 100 29.86 1010.6
23 11:53 NW 10 10.00 A Few Clouds FEW034 89.1 73.9 61% 98 29.86 1010.8
23 10:53 W 9 10.00 Overcast BKN031 OVC042 86 75 70% 95 29.86 1010.7
23 09:53 W 10 10.00 Mostly Cloudy BKN033 86 75 70% 95 29.85 1010.3
23 08:53 SW 15 G 21 10.00 A Few Clouds FEW039 84 73.9 72% 91 29.85 1010.3
23 07:53 SW 10 10.00 A Few Clouds FEW044 82.9 73.9 74% 89 29.85 1010.3
23 06:53 SW 10 10.00 Overcast OVC060 79 73 82 79 82% 82 29.84 1010.0
23 05:53 SW 5 10.00 Overcast OVC085 80.1 72 76% 84 29.84 1010.2
23 04:53 SW 9 G 20 10.00 Mostly Cloudy BKN080 80.1 73 79% 84 29.84 1010.0
23 03:53 SW 10 10.00 Partly Cloudy SCT110 80.1 73 79% 84 29.85 1010.3
23 02:53 SW 9 10.00 A Few Clouds FEW110 80.1 73 79% 84 29.86 1010.8
23 01:53 SW 9 10.00 Fair CLR 80.1 73 79% 84 29.88 1011.4
23 00:53 S 10 10.00 Fair CLR 82 73 90 80.1 74% 87 29.87 1011.1
22 23:53 SW 13 10.00 Fair CLR 82.9 72 70% 88 29.89 1011.7
22 22:53 S 8 10.00 Fair CLR 81 71.1 72% 85 29.9 1012.0
22 21:53 S 7 10.00 Fair CLR 81 71.1 72% 85 29.9 1011.9
22 20:53 S 7 10.00 Fair CLR 81 72 74% 85 29.9 1011.9
22 19:53 SW 6 10.00 Fair CLR 84.9 71.1 63% 90 29.92 1012.6
22 18:53 SW 10 10.00 Fair CLR 90 70 93 89.1 52% 95 29.92 1012.7
22 17:53 SW 8 10.00 A Few Clouds FEW055 91.9 73 54% 101 29.92 1012.8
22 16:53 SW 13 10.00 Fair CLR 91.9 71.1 51% 99 29.93 1013.2
22 15:53 S 8 10.00 Fair CLR 91.9 73 54% 101 29.95 1013.6
22 14:53 SW 13 10.00 A Few Clouds FEW070 91.9 71.1 51% 99 29.98 1014.7
22 13:53 W 14 G 21 10.00 Partly Cloudy FEW046 SCT060 SCT085 91 70 50% 97 29.99 1015.2
22 12:53 SW 10 10.00 A Few Clouds FEW049 FEW085 90 73 91.9 72 58% 98 30.01 1015.7
22 11:53 Vrbl 7 G 20 10.00 Fair CLR 90 73 58% 98 30.03 1016.5
22 10:53 SW 7 10.00 Fair CLR 88 72 59% 95 30.04 1017.0
22 08:53 SW 8 10.00 Fair CLR 84.9 72 65% 91 30.08 1018.0
22 07:53 S 3 10.00 Fair CLR 79 73 82% 82 30.09 1018.3
22 06:53 Calm 6.00 Fog/Mist CLR 72 71.1 73.9 69.1 97% 30.08 1018.1
22 05:53 Calm 7.00 Fair CLR 71.1 70 96% 30.08 1018.2
22 04:53 Calm 3.00 Fog/Mist CLR 70 70 100% 30.09 1018.5
22 03:53 Calm 9.00 Fair CLR 70 69.1 97% 30.09 1018.6
22 02:53 Calm 10.00 Fair CLR 72 70 94% 30.09 1018.5
22 01:53 Calm 10.00 Fair CLR 73.9 72 94% 30.09 1018.6
22 00:53 Calm 9.00 Fair CLR 73 71.1 89.1 72 94% 30.1 1018.7
21 23:53 E 3 10.00 Fair CLR 73.9 72 94% 30.1 1018.8
21 22:53 E 3 10.00 Fair CLR 75 73 94% 73 30.11 1019.0
21 21:53 Calm 10.00 Fair CLR 77 73 88% 78 30.1 1018.9
21 20:53 SE 5 10.00 Fair CLR 78.1 73 85% 81 30.09 1018.4
21 19:53 SE 5 10.00 Fair CLR 84 73 70% 90 30.1 1018.9
21 18:53 SW 3 10.00 Fair CLR 89.1 69.1 93 89.1 52% 94 30.11 1019.1
21 17:53 S 3 10.00 Fair CLR 91 69.1 49% 96 30.11 1019.3
21 16:53 SW 5 10.00 Fair CLR 90 69.1 50% 95 30.13 1019.8
21 15:53 Calm 10.00 Fair CLR 91 68 47% 95 30.14 1020.3
21 14:53 Vrbl 3 10.00 Fair CLR 93 71.1 49% 100 30.16 1020.9
21 13:53 Calm 10.00 Fair CLR 89.1 68 50% 93 30.18 1021.7
21 12:53 Vrbl 3 10.00 Fair CLR 90 70 91 71.1 52% 95 30.21 1022.5
21 11:53 S 6 10.00 A Few Clouds FEW060 89.1 69.1 52% 94 30.22 1023.0
21 10:53 Vrbl 5 10.00 Fair CLR 88 71.1 57% 94 30.24 1023.5
21 09:53 SE 7 10.00 Fair CLR 87.1 72 61% 94 30.24 1023.6
21 08:53 Calm 10.00 Fair CLR 82.9 73.9 74% 89 30.25 1023.9
21 07:53 Calm 10.00 Fair CLR 80.1 73 79% 84 30.25 1023.8
21 06:53 Calm 4.00 Fog/Mist CLR 71.1 71.1 72 68 100% 30.24 1023.7
21 05:53 Calm 0.25 Fog CLR 69.1 69.1 100% 30.24 1023.6
21 04:53 Calm 0.25 Fog VV004 70 69.1 97% 30.23 1023.1
21 03:53 Calm 0.25 Fog VV003 68 68 100% 30.22 1023.1
21 02:53 Calm 4.00 Fog/Mist CLR 69.1 69.1 100% 30.21 1022.8
Date Time (cdt) Wind (mph) Vis. (mi.) Weather Sky Cond. Air Dwpt Max. Min. Relative Humidity Wind Chill (°F) Heat Index (°F) altimeter (in) sea level (mb) 1 hr 3 hr 6 hr
6 hour
Temperature (ºF) Pressure Precipitation (in)